阿卡迪亚3号

导读

CAPELLA-13(又名ACADIA-3)是美国Capella Space公司研制的新一代合成孔径雷达(SAR)卫星,属于Acadia技术系列的第四颗卫星。该星于2024年8月11日由Rocket Lab电子号火箭从新西兰发射,最终进入615公里、倾角53度的预定轨道。它将Capella星座成像能力升级,地面分辨率可达0.31米,带宽提升至700MHz,搭配星间光通信链路,可实现更快速图像交付与更低 latency,服务国防、灾害监测、商业遥感等应用,进一步完善美国商用高分辨率雷达成像网络。

Basic Information
目录编号:
60419
目录名称:
CAPELLA-13 (ACADIA)
国际标识:
2024-142A
轨道中心:
EARTH
卫星名称:
阿卡迪亚3号
卫星全名:
阿卡迪亚3号
卫星状态:
在轨 (已飞行671 天)
发射日期:
2024-08-11 UTC
国别 :
美国 (US)
星等 :
--
Orbit Information
数据来源 国际轨道数据 AOE轨道数据
星历时间 2026-06-12T06:13:02+0800
1天前
查看轨道信息
2026-06-11T00:00:00+0800
2天前
查看轨道信息
半长轴 6983.398km 6983.441km
偏心率 0.0001421 0.0001274
轨道倾角 53.005° 53.004°
近地点辐角 90.680° 99.014°
升交点赤经 80.533° 86.028°
平近点角 269.434° 354.549°
近地点 604.268km 604.414km
远地点 606.254km 606.194km
周期 96.797分钟 96.797分钟
每日圈数 14.876563 14.876426
Detailed Information
运营商:
火箭实验室
运营商所在国:
美国
制造商(研发单位):
火箭实验室
制造商所在国:
美国
使用方式:
暂无
Satellite Introduction
卡佩拉13(Capella 13)或 Capella Acadia 3 是美国公司 Capella Space 所发射的一颗地球观测卫星。Capella Space 专注于使用**合成孔径雷达(SAR)**技术进行高分辨率的地球成像,该技术具有全天候、全天时观测能力,不受云层和光照条件的影响。
2D Orbit Map
3D Orbit Map
Orbit Altitude Analysis Chart
Orbit Inclination Analysis Chart
Orbit Comprehensive Analysis Chart
View Comprehensive Chart